VANGUARD DEB, 1576

Orbit data source: Space-Track

VANGUARD DEB, 1576 is space debris in LEO originally from a launch on Mon, 17 Mar 1958 UTC launched from the Air Force Eastern Test Range (AFETR). Debris objects in space refer to the collection of defunct objects orbiting the Earth. Examples of debris include non-operational satellites, rocket bodies, and fragments generated from explosions, collisions, or faulty payload assembly.

Loading next visibility...
Identifier
1576, 1958-002C
Orbit
LEO
Country
Flag of USUS
Related business
Manufacturer
NRL
Mission
Spacecraft
Bus & Motor
Unknown
Mass
Unknown
Launch date (UTC)
1958-03-17 (68 years ago)
Launch vehicle
Unknown
Launch site
Air Force Eastern Test Range (AFETR)
Object type
Payload
Rocket body
Debris
Shape & HBR
Unknown shape, 0.1 m
Radar Cross Section
Medium (>0.1 m² and <1 m²)

Expand to show TLE details & history
Last TLE update: 6 hours ago

TLE from 6 hours ago
0 VANGUARD DEB
1 01576U 58002C   26247.93442341  .00001993  00000-0  17768-2 0  9998
2 01576  34.2209 178.0255 1385452  85.8412 289.8834 11.83486596811558
Epoch: 2026-09-04T22:25Z
TLE epoch observation values (Epoch: 2026-09-04T22:25:34.182Z)
Latitude
-0.00001°
Longitude
-142.41806°
Altitude
1,518.012 km
Speed
7.21 km/s
True Right ascension
11h 52m 06s
True Declination
0° 00' 00"
Sunlit
Object was in daylight at epoch
Visualization orbit readout
Latitude
Unknown
Longitude
Unknown
Altitude
Unknown
Speed
Unknown
Apparent Right ascension
Unknown
Apparent Declination
Unknown
Sunlit
N/A
Visualization observer readout
Local Sidereal Time
19:56:13
Azimuth
Unknown
Elevation
Unknown
Doppler factor
Unknown
Orbital elements
Apogee altitude
2,885.893 km
Perigee altitude
631.284 km
Semi-major axis
8,136.725 km
Eccentricity
0.13855
Inclination
34.2209°
RAAN
178.0255°
Arg. of periapsis
85.8412°
True anomaly
274.22056°
Mean anomaly
289.8834°
Eccentric anomaly
282.12235°
Mean motion
2.95712 °/min
Orbital period
121.74 mins
BSTAR
0.0017768
Loading maneuver chart data...
Computing Atmospheric mass density...
Loading historical data...
Loading historical data...
Loading historical data...
Loading historical data...
Loading historical data...
Loading historical data...
Loading historical data...
Other satellites on launch #2 in the year 1958 (1958-03-17 UTC)

Documentation

Showing up to 5 results
|